ORBCOMM FM117 [+] (41188 NORAD) Tracking and Keplerian Element Data

This shows tracking and keplerian element data for the satellite.

Feedback or suggestion? Click here.




ElementValue
Catalog41188
NameORBCOMM FM117 [+]
Epoch Orbit17968
Epoch Day114.12487026
Epoch Year2019
RAAN230.0353
Inclination47.0008
Eccentricity0.0002358
Argument of Perigee154.3034
Mean Anonmoly205.7968
Mean Motion14.5482296
Decay Rate-4.3E-07
L11 41188U 15081K 19114.12487026 -.00000043 00000-0 28402-4 0 9991
L22 41188 47.0008 230.0353 0002358 154.3034 205.7968 14.54822960179686

Live tracking and technical data element details for ORBCOMM FM117 [+] (NORAD 41188). ORBCOMM FM117 [+] can be tracked NOW for your location showing map with azimuth and elevation plus other details from your city location.

Track the satellite on the map from your city or location and see movement details for azimuth, elevation, latitude, longitude, range, height, and movement on the map or in text.







IsCatalogInMostPopularTable: catalog: 41188, numindb: 203
Update: records affected: 1



GetName: 41188 ORBCOMM FM117 [+]

Hit Count: updated at: Thu, 25 Apr 2019 19:52:54 GMT